Year,Month,Day,Hour,Minute,Value (Times are PST for temperature in C)
2007,10,23,00,00,10.10
2007,10,23,00,01,10.10
2007,10,23,00,02,10.10
2007,10,23,00,03,10.10
2007,10,23,00,04,10.10
2007,10,23,00,05,10.10
2007,10,23,00,06,10.10
2007,10,23,00,07,10.10
2007,10,23,00,08,10.10
2007,10,23,00,09,10.10
2007,10,23,00,10,10.10
2007,10,23,00,11,10.10
2007,10,23,00,12,10.10
2007,10,23,00,13,10.10
2007,10,23,00,14,10.10
2007,10,23,00,15,10.10
2007,10,23,00,16,10.10
2007,10,23,00,17,10.10
2007,10,23,00,18,10.10
2007,10,23,00,19,10.10
2007,10,23,00,20,10.10
2007,10,23,00,21,10.20
2007,10,23,00,22,10.20
2007,10,23,00,23,10.30
2007,10,23,00,24,10.30
2007,10,23,00,25,10.40
2007,10,23,00,26,10.40
2007,10,23,00,27,10.40
2007,10,23,00,28,10.40
2007,10,23,00,29,10.40
2007,10,23,00,30,10.40
2007,10,23,00,31,10.40
2007,10,23,00,32,10.40
2007,10,23,00,33,10.40
2007,10,23,00,34,10.50
2007,10,23,00,35,10.60
2007,10,23,00,36,10.60
2007,10,23,00,37,10.60
2007,10,23,00,38,10.60
2007,10,23,00,39,10.60
2007,10,23,00,40,10.60
2007,10,23,00,41,10.60
2007,10,23,00,42,10.60
2007,10,23,00,43,10.60
2007,10,23,00,44,10.60
2007,10,23,00,45,10.60
2007,10,23,00,46,10.60
2007,10,23,00,47,10.60
2007,10,23,00,48,10.60
2007,10,23,00,49,10.60
2007,10,23,00,50,10.60
2007,10,23,00,51,10.60
2007,10,23,00,52,10.60
2007,10,23,00,53,10.60
2007,10,23,00,54,10.60
2007,10,23,00,55,10.60
2007,10,23,00,56,10.60
2007,10,23,00,57,10.70
2007,10,23,00,58,10.70
2007,10,23,00,59,10.70
2007,10,23,01,00,10.70
2007,10,23,01,01,10.80
2007,10,23,01,02,10.80
2007,10,23,01,03,10.80
2007,10,23,01,04,10.90
2007,10,23,01,05,10.90
2007,10,23,01,06,10.90
2007,10,23,01,07,10.90
2007,10,23,01,08,10.90
2007,10,23,01,09,10.90
2007,10,23,01,10,10.90
2007,10,23,01,11,10.90
2007,10,23,01,12,10.90
2007,10,23,01,13,10.90
2007,10,23,01,14,10.90
2007,10,23,01,15,10.90
2007,10,23,01,16,10.90
2007,10,23,01,17,11.00
2007,10,23,01,18,11.10
2007,10,23,01,19,11.10
2007,10,23,01,20,11.10
2007,10,23,01,21,11.10
2007,10,23,01,22,11.10
2007,10,23,01,23,11.10
2007,10,23,01,24,11.10
2007,10,23,01,25,11.10
2007,10,23,01,26,11.10
2007,10,23,01,27,11.20
2007,10,23,01,28,11.20
2007,10,23,01,29,11.30
2007,10,23,01,30,11.30
2007,10,23,01,31,11.40
2007,10,23,01,32,11.40
2007,10,23,01,33,11.40
2007,10,23,01,34,11.40
2007,10,23,01,35,11.50
2007,10,23,01,36,11.60
2007,10,23,01,37,11.60
2007,10,23,01,38,11.60
2007,10,23,01,39,11.60
2007,10,23,01,40,11.60
2007,10,23,01,41,11.60
2007,10,23,01,42,11.60
2007,10,23,01,43,11.60
2007,10,23,01,44,11.60
2007,10,23,01,45,11.60
2007,10,23,01,46,11.60
2007,10,23,01,47,11.60
2007,10,23,01,48,11.60
2007,10,23,01,49,11.60
2007,10,23,01,50,11.60
2007,10,23,01,51,11.60
2007,10,23,01,52,11.60
2007,10,23,01,53,11.60
2007,10,23,01,54,11.60
2007,10,23,01,55,11.60
2007,10,23,01,56,11.60
2007,10,23,01,57,11.60
2007,10,23,01,58,11.60
2007,10,23,01,59,11.60
2007,10,23,02,00,11.60
2007,10,23,02,01,11.60
2007,10,23,02,02,11.60
2007,10,23,02,03,11.60
2007,10,23,02,04,11.60
2007,10,23,02,05,11.60
2007,10,23,02,06,11.60
2007,10,23,02,07,11.60
2007,10,23,02,08,11.60
2007,10,23,02,09,11.60
2007,10,23,02,10,11.70
2007,10,23,02,11,11.70
2007,10,23,02,12,11.70
2007,10,23,02,13,11.70
2007,10,23,02,14,11.70
2007,10,23,02,15,11.70
2007,10,23,02,16,11.80
2007,10,23,02,17,11.80
2007,10,23,02,18,11.80
2007,10,23,02,19,11.80
2007,10,23,02,20,11.80
2007,10,23,02,21,11.80
2007,10,23,02,22,11.80
2007,10,23,02,23,11.80
2007,10,23,02,24,11.80
2007,10,23,02,25,11.80
2007,10,23,02,26,11.80
2007,10,23,02,27,11.80
2007,10,23,02,28,11.80
2007,10,23,02,29,11.80
2007,10,23,02,30,11.80
2007,10,23,02,31,11.80
2007,10,23,02,32,11.80
2007,10,23,02,33,11.80
2007,10,23,02,34,11.80
2007,10,23,02,35,11.80
2007,10,23,02,36,11.80
2007,10,23,02,37,11.80
2007,10,23,02,38,11.80
2007,10,23,02,39,11.80
2007,10,23,02,40,11.80
2007,10,23,02,41,11.80
2007,10,23,02,42,11.80
2007,10,23,02,43,11.80
2007,10,23,02,44,11.80
2007,10,23,02,45,11.80
2007,10,23,02,46,11.80
2007,10,23,02,47,11.80
2007,10,23,02,48,11.80
2007,10,23,02,49,11.80
2007,10,23,02,50,11.80
2007,10,23,02,51,11.80
2007,10,23,02,52,11.80
2007,10,23,02,53,11.80
2007,10,23,02,54,11.80
2007,10,23,02,55,11.80
2007,10,23,02,56,11.80
2007,10,23,02,57,11.80
2007,10,23,02,58,11.70
2007,10,23,02,59,11.70
2007,10,23,03,00,11.70
2007,10,23,03,01,11.70
2007,10,23,03,02,11.70
2007,10,23,03,03,11.70
2007,10,23,03,04,11.60
2007,10,23,03,05,11.60
2007,10,23,03,06,11.60
2007,10,23,03,07,11.60
2007,10,23,03,08,11.60
2007,10,23,03,09,11.60
2007,10,23,03,10,11.60
2007,10,23,03,11,11.60
2007,10,23,03,12,11.60
2007,10,23,03,13,11.60
2007,10,23,03,14,11.70
2007,10,23,03,15,11.70
2007,10,23,03,16,11.70
2007,10,23,03,17,11.70
2007,10,23,03,18,11.70
2007,10,23,03,19,11.70
2007,10,23,03,20,11.70
2007,10,23,03,21,11.70
2007,10,23,03,22,11.70
2007,10,23,03,23,11.80
2007,10,23,03,24,11.80
2007,10,23,03,25,11.80
2007,10,23,03,26,11.80
2007,10,23,03,27,11.80
2007,10,23,03,28,11.80
2007,10,23,03,29,11.80
2007,10,23,03,30,11.80
2007,10,23,03,31,11.80
2007,10,23,03,32,11.80
2007,10,23,03,33,11.80
2007,10,23,03,34,11.80
2007,10,23,03,35,11.80
2007,10,23,03,36,11.80
2007,10,23,03,37,11.90
2007,10,23,03,38,11.90
2007,10,23,03,39,11.90
2007,10,23,03,40,11.90
2007,10,23,03,41,11.90
2007,10,23,03,42,12.00
2007,10,23,03,43,12.00
2007,10,23,03,44,12.00
2007,10,23,03,45,12.00
2007,10,23,03,46,12.00
2007,10,23,03,47,12.00
2007,10,23,03,48,12.00
2007,10,23,03,49,12.00
2007,10,23,03,50,12.00
2007,10,23,03,51,12.00
2007,10,23,03,52,12.00
2007,10,23,03,53,12.00
2007,10,23,03,54,12.00
2007,10,23,03,55,12.10
2007,10,23,03,56,12.10
2007,10,23,03,57,12.10
2007,10,23,03,58,12.20
2007,10,23,03,59,12.20
2007,10,23,04,00,12.30
2007,10,23,04,01,12.30
2007,10,23,04,02,12.30
2007,10,23,04,03,12.30
2007,10,23,04,04,12.30
2007,10,23,04,05,12.30
2007,10,23,04,06,12.30
2007,10,23,04,07,12.30
2007,10,23,04,08,12.30
2007,10,23,04,09,12.30
2007,10,23,04,10,12.30
2007,10,23,04,11,12.30
2007,10,23,04,12,12.30
2007,10,23,04,13,12.40
2007,10,23,04,14,12.30
2007,10,23,04,15,12.30
2007,10,23,04,16,12.30
2007,10,23,04,17,12.30
2007,10,23,04,18,12.30
2007,10,23,04,19,12.30
2007,10,23,04,20,12.30
2007,10,23,04,21,12.30
2007,10,23,04,22,12.30
2007,10,23,04,23,12.30
2007,10,23,04,24,12.30
2007,10,23,04,25,12.30
2007,10,23,04,26,12.30
2007,10,23,04,27,12.30
2007,10,23,04,28,12.30
2007,10,23,04,29,12.30
2007,10,23,04,30,12.30
2007,10,23,04,31,12.30
2007,10,23,04,32,12.30
2007,10,23,04,33,12.30
2007,10,23,04,34,12.20
2007,10,23,04,35,12.20
2007,10,23,04,36,12.20
2007,10,23,04,37,12.20
2007,10,23,04,38,12.20
2007,10,23,04,39,12.20
2007,10,23,04,40,12.20
2007,10,23,04,41,12.10
2007,10,23,04,42,12.10
2007,10,23,04,43,12.10
2007,10,23,04,44,12.10
2007,10,23,04,45,12.10
2007,10,23,04,46,12.00
2007,10,23,04,47,12.00
2007,10,23,04,48,12.00
2007,10,23,04,49,12.00
2007,10,23,04,50,12.00
2007,10,23,04,51,12.00
2007,10,23,04,52,12.00
2007,10,23,04,53,11.90
2007,10,23,04,54,11.90
2007,10,23,04,55,11.90
2007,10,23,04,56,11.90
2007,10,23,04,57,11.90
2007,10,23,04,58,11.80
2007,10,23,04,59,11.80
2007,10,23,05,00,11.80
2007,10,23,05,01,11.80
2007,10,23,05,02,11.80
2007,10,23,05,03,11.80
2007,10,23,05,04,11.80
2007,10,23,05,05,11.70
2007,10,23,05,06,11.70
2007,10,23,05,07,11.70
2007,10,23,05,08,11.70
2007,10,23,05,09,11.70
2007,10,23,05,10,11.60
2007,10,23,05,11,11.60
2007,10,23,05,12,11.60
2007,10,23,05,13,11.60
2007,10,23,05,14,11.60
2007,10,23,05,15,11.60
2007,10,23,05,16,11.60
2007,10,23,05,17,11.60
2007,10,23,05,18,11.60
2007,10,23,05,19,11.60
2007,10,23,05,20,11.60
2007,10,23,05,21,11.60
2007,10,23,05,22,11.60
2007,10,23,05,23,11.60
2007,10,23,05,24,11.60
2007,10,23,05,25,11.60
2007,10,23,05,26,11.60
2007,10,23,05,27,11.60
2007,10,23,05,28,11.60
2007,10,23,05,29,11.60
2007,10,23,05,30,11.60
2007,10,23,05,31,11.60
2007,10,23,05,32,11.60
2007,10,23,05,33,11.60
2007,10,23,05,34,11.60
2007,10,23,05,35,11.60
2007,10,23,05,36,11.60
2007,10,23,05,37,11.60
2007,10,23,05,38,11.60
2007,10,23,05,39,11.60
2007,10,23,05,40,11.60
2007,10,23,05,41,11.60
2007,10,23,05,42,11.60
2007,10,23,05,43,11.60
2007,10,23,05,44,11.60
2007,10,23,05,45,11.60
2007,10,23,05,46,11.60
2007,10,23,05,47,11.60
2007,10,23,05,48,11.60
2007,10,23,05,49,11.60
2007,10,23,05,50,11.60
2007,10,23,05,51,11.60
2007,10,23,05,52,11.60
2007,10,23,05,53,11.60
2007,10,23,05,54,11.60
2007,10,23,05,55,11.60
2007,10,23,05,56,11.60
2007,10,23,05,57,11.50
2007,10,23,05,58,11.40
2007,10,23,05,59,11.40
2007,10,23,06,00,11.40
2007,10,23,06,01,11.40
2007,10,23,06,02,11.40
2007,10,23,06,03,11.40
2007,10,23,06,04,11.40
2007,10,23,06,05,11.40
2007,10,23,06,06,11.40
2007,10,23,06,07,11.40
2007,10,23,06,08,11.40
2007,10,23,06,09,11.40
2007,10,23,06,10,11.40
2007,10,23,06,11,11.40
2007,10,23,06,12,11.40
2007,10,23,06,13,11.40
2007,10,23,06,14,11.40
2007,10,23,06,15,11.40
2007,10,23,06,16,11.40
2007,10,23,06,17,11.40
2007,10,23,06,18,11.40
2007,10,23,06,19,11.40
2007,10,23,06,20,11.40
2007,10,23,06,21,11.40
2007,10,23,06,22,11.40
2007,10,23,06,23,11.40
2007,10,23,06,24,11.40
2007,10,23,06,25,11.40
2007,10,23,06,26,11.40
2007,10,23,06,27,11.40
2007,10,23,06,28,11.40
2007,10,23,06,29,11.40
2007,10,23,06,30,11.40
2007,10,23,06,31,11.40
2007,10,23,06,32,11.40
2007,10,23,06,33,11.40
2007,10,23,06,34,11.40
2007,10,23,06,35,11.40
2007,10,23,06,36,11.40
2007,10,23,06,37,11.40
2007,10,23,06,38,11.40
2007,10,23,06,39,11.40
2007,10,23,06,40,11.40
2007,10,23,06,41,11.40
2007,10,23,06,42,11.40
2007,10,23,06,43,11.40
2007,10,23,06,44,11.40
2007,10,23,06,45,11.40
2007,10,23,06,46,11.40
2007,10,23,06,47,11.40
2007,10,23,06,48,11.40
2007,10,23,06,49,11.40
2007,10,23,06,50,11.40
2007,10,23,06,51,11.40
2007,10,23,06,52,11.40
2007,10,23,06,53,11.40
2007,10,23,06,54,11.60
2007,10,23,06,55,11.60
2007,10,23,06,56,11.60
2007,10,23,06,57,11.60
2007,10,23,06,58,11.60
2007,10,23,06,59,11.60
2007,10,23,07,00,11.60
2007,10,23,07,01,11.60
2007,10,23,07,02,11.60
2007,10,23,07,03,11.60
2007,10,23,07,04,11.60
2007,10,23,07,05,11.60
2007,10,23,07,06,11.60
2007,10,23,07,07,11.60
2007,10,23,07,08,11.60
2007,10,23,07,09,11.60
2007,10,23,07,10,11.60
2007,10,23,07,11,11.60
2007,10,23,07,12,11.60
2007,10,23,07,13,11.60
2007,10,23,07,14,11.60
2007,10,23,07,15,11.60
2007,10,23,07,16,11.60
2007,10,23,07,17,11.60
2007,10,23,07,18,11.60
2007,10,23,07,19,11.60
2007,10,23,07,20,11.60
2007,10,23,07,21,11.60
2007,10,23,07,22,11.60
2007,10,23,07,23,11.60
2007,10,23,07,24,11.60
2007,10,23,07,25,11.60
2007,10,23,07,26,11.60
2007,10,23,07,27,11.60
2007,10,23,07,28,11.60
2007,10,23,07,29,11.60
2007,10,23,07,30,11.60
2007,10,23,07,31,11.60
2007,10,23,07,32,11.60
2007,10,23,07,33,11.60
2007,10,23,07,34,11.60
2007,10,23,07,35,11.60
2007,10,23,07,36,11.60
2007,10,23,07,37,11.60
2007,10,23,07,38,11.60
2007,10,23,07,39,11.60
2007,10,23,07,40,11.60
2007,10,23,07,41,11.70
2007,10,23,07,42,11.70
2007,10,23,07,43,11.70
2007,10,23,07,44,11.70
2007,10,23,07,45,11.70
2007,10,23,07,46,11.80
2007,10,23,07,47,11.80
2007,10,23,07,48,11.80
2007,10,23,07,49,11.80
2007,10,23,07,50,11.80
2007,10,23,07,51,11.80
2007,10,23,07,52,11.80
2007,10,23,07,53,11.80
2007,10,23,07,54,11.80
2007,10,23,07,55,11.70
2007,10,23,07,56,11.70
2007,10,23,07,57,11.70
2007,10,23,07,58,11.80
2007,10,23,07,59,11.80
2007,10,23,08,00,11.80
2007,10,23,08,01,11.80
2007,10,23,08,02,11.80
2007,10,23,08,03,11.80
2007,10,23,08,04,11.80
2007,10,23,08,05,11.80
2007,10,23,08,06,11.80
2007,10,23,08,07,11.80
2007,10,23,08,08,11.80
2007,10,23,08,09,11.80
2007,10,23,08,10,11.80
2007,10,23,08,11,11.80
2007,10,23,08,12,11.80
2007,10,23,08,13,11.80
2007,10,23,08,14,11.80
2007,10,23,08,15,11.80
2007,10,23,08,16,11.80
2007,10,23,08,17,11.80
2007,10,23,08,18,11.80
2007,10,23,08,19,11.80
2007,10,23,08,20,11.80
2007,10,23,08,21,11.80
2007,10,23,08,22,11.80
2007,10,23,08,23,11.90
2007,10,23,08,24,11.90
2007,10,23,08,25,11.90
2007,10,23,08,26,11.90
2007,10,23,08,27,11.90
2007,10,23,08,28,12.00
2007,10,23,08,29,12.00
2007,10,23,08,30,12.10
2007,10,23,08,31,12.10
2007,10,23,08,32,12.10
2007,10,23,08,33,12.20
2007,10,23,08,34,12.20
2007,10,23,08,35,12.30
2007,10,23,08,36,12.30
2007,10,23,08,37,12.30
2007,10,23,08,38,12.40
2007,10,23,08,39,12.40
2007,10,23,08,40,12.50
2007,10,23,08,41,12.50
2007,10,23,08,42,12.60
2007,10,23,08,43,12.60
2007,10,23,08,44,12.60
2007,10,23,08,45,12.70
2007,10,23,08,46,12.80
2007,10,23,08,47,12.80
2007,10,23,08,48,12.80
2007,10,23,08,49,12.90
2007,10,23,08,50,12.90
2007,10,23,08,51,12.90
2007,10,23,08,52,12.90
2007,10,23,08,53,12.90
2007,10,23,08,54,12.90
2007,10,23,08,55,12.90
2007,10,23,08,56,12.90
2007,10,23,08,57,12.90
2007,10,23,08,58,12.90
2007,10,23,08,59,12.90
2007,10,23,09,00,12.90
2007,10,23,09,01,12.90
2007,10,23,09,02,12.90
2007,10,23,09,03,12.90
2007,10,23,09,04,12.90
2007,10,23,09,05,13.00
2007,10,23,09,06,13.00
2007,10,23,09,07,13.00
2007,10,23,09,08,13.00
2007,10,23,09,09,13.00
2007,10,23,09,10,13.00
2007,10,23,09,11,13.00
2007,10,23,09,12,13.10
2007,10,23,09,13,13.10
2007,10,23,09,14,13.10
2007,10,23,09,15,13.10
2007,10,23,09,16,13.20
2007,10,23,09,17,13.30
2007,10,23,09,18,13.30
2007,10,23,09,19,13.30
2007,10,23,09,20,13.30
2007,10,23,09,21,13.40
2007,10,23,09,22,13.40
2007,10,23,09,23,13.50
2007,10,23,09,24,13.50
2007,10,23,09,25,13.50
2007,10,23,09,26,13.50
2007,10,23,09,27,13.50
2007,10,23,09,28,13.50
2007,10,23,09,29,13.50
2007,10,23,09,30,13.50
2007,10,23,09,31,13.50
2007,10,23,09,32,13.60
2007,10,23,09,33,13.60
2007,10,23,09,34,13.60
2007,10,23,09,35,13.60
2007,10,23,09,36,13.60
2007,10,23,09,37,13.60
2007,10,23,09,38,13.70
2007,10,23,09,39,13.80
2007,10,23,09,40,13.80
2007,10,23,09,41,13.90
2007,10,23,09,42,14.00
2007,10,23,09,43,14.10
2007,10,23,09,44,14.20
2007,10,23,09,45,14.40
2007,10,23,09,46,14.50
2007,10,23,09,47,14.60
2007,10,23,09,48,14.70
2007,10,23,09,49,14.80
2007,10,23,09,50,14.90
2007,10,23,09,51,15.00
2007,10,23,09,52,15.00
2007,10,23,09,53,15.20
2007,10,23,09,54,15.30
2007,10,23,09,55,15.40
2007,10,23,09,56,15.50
2007,10,23,09,57,15.60
2007,10,23,09,58,15.70
2007,10,23,09,59,15.80
2007,10,23,10,00,15.80
2007,10,23,10,01,15.90
2007,10,23,10,02,16.00
2007,10,23,10,03,16.10
2007,10,23,10,04,16.10
2007,10,23,10,05,16.20
2007,10,23,10,06,16.30
2007,10,23,10,07,16.40
2007,10,23,10,08,16.40
2007,10,23,10,09,16.50
2007,10,23,10,10,16.70
2007,10,23,10,11,16.70
2007,10,23,10,12,16.80
2007,10,23,10,13,16.90
2007,10,23,10,14,17.00
2007,10,23,10,15,17.00
2007,10,23,10,16,17.00
2007,10,23,10,17,17.10
2007,10,23,10,18,17.20
2007,10,23,10,19,17.20
2007,10,23,10,20,17.30
2007,10,23,10,21,17.30
2007,10,23,10,22,17.30
2007,10,23,10,23,17.30
2007,10,23,10,24,17.30
2007,10,23,10,25,17.40
2007,10,23,10,26,17.40
2007,10,23,10,27,17.50
2007,10,23,10,28,17.50
2007,10,23,10,29,17.50
2007,10,23,10,30,17.50
2007,10,23,10,31,17.50
2007,10,23,10,32,17.50
2007,10,23,10,33,17.50
2007,10,23,10,34,17.50
2007,10,23,10,35,17.60
2007,10,23,10,36,17.60
2007,10,23,10,37,17.60
2007,10,23,10,38,17.70
2007,10,23,10,39,17.70
2007,10,23,10,40,17.70
2007,10,23,10,41,17.80
2007,10,23,10,42,17.80
2007,10,23,10,43,17.90
2007,10,23,10,44,17.90
2007,10,23,10,45,17.90
2007,10,23,10,46,17.90
2007,10,23,10,47,17.90
2007,10,23,10,48,17.90
2007,10,23,10,49,17.90
2007,10,23,10,50,17.90
2007,10,23,10,51,17.90
2007,10,23,10,52,17.90
2007,10,23,10,53,17.90
2007,10,23,10,54,17.90
2007,10,23,10,55,17.80
2007,10,23,10,56,17.70
2007,10,23,10,57,17.70
2007,10,23,10,58,17.60
2007,10,23,10,59,17.60
2007,10,23,11,00,17.60
2007,10,23,11,01,17.50
2007,10,23,11,02,17.50
2007,10,23,11,03,17.50
2007,10,23,11,04,17.50
2007,10,23,11,05,17.50
2007,10,23,11,06,17.50
2007,10,23,11,07,17.50
2007,10,23,11,08,17.50
2007,10,23,11,09,17.50
2007,10,23,11,10,17.50
2007,10,23,11,11,17.50
2007,10,23,11,12,17.50
2007,10,23,11,13,17.40
2007,10,23,11,14,17.40
2007,10,23,11,15,17.40
2007,10,23,11,16,17.40
2007,10,23,11,17,17.40
2007,10,23,11,18,17.40
2007,10,23,11,19,17.40
2007,10,23,11,20,17.40
2007,10,23,11,21,17.50
2007,10,23,11,22,17.50
2007,10,23,11,23,17.50
2007,10,23,11,24,17.50
2007,10,23,11,25,17.60
2007,10,23,11,26,17.60
2007,10,23,11,27,17.60
2007,10,23,11,28,17.60
2007,10,23,11,29,17.50
2007,10,23,11,30,17.50
2007,10,23,11,31,17.50
2007,10,23,11,32,17.50
2007,10,23,11,33,17.50
2007,10,23,11,34,17.50
2007,10,23,11,35,17.50
2007,10,23,11,36,17.50
2007,10,23,11,37,17.60
2007,10,23,11,38,17.60
2007,10,23,11,39,17.70
2007,10,23,11,40,17.70
2007,10,23,11,41,17.80
2007,10,23,11,42,17.90
2007,10,23,11,43,17.90
2007,10,23,11,44,18.00
2007,10,23,11,45,18.10
2007,10,23,11,46,18.10
2007,10,23,11,47,18.10
2007,10,23,11,48,18.20
2007,10,23,11,49,18.20
2007,10,23,11,50,18.20
2007,10,23,11,51,18.20
2007,10,23,11,52,18.20
2007,10,23,11,53,18.20
2007,10,23,11,54,18.20
2007,10,23,11,55,18.20
2007,10,23,11,56,18.20
2007,10,23,11,57,18.20
2007,10,23,11,58,18.30
2007,10,23,11,59,18.30
2007,10,23,12,00,18.30
2007,10,23,12,01,18.30
2007,10,23,12,02,18.30
2007,10,23,12,03,18.30
2007,10,23,12,04,18.20
2007,10,23,12,05,18.20
2007,10,23,12,06,18.20
2007,10,23,12,07,18.20
2007,10,23,12,08,18.20
2007,10,23,12,09,18.20
2007,10,23,12,10,18.20
2007,10,23,12,11,18.20
2007,10,23,12,12,18.20
2007,10,23,12,13,18.20
2007,10,23,12,14,18.20
2007,10,23,12,15,18.20
2007,10,23,12,16,18.20
2007,10,23,12,17,18.20
2007,10,23,12,18,18.20
2007,10,23,12,19,18.30
2007,10,23,12,20,18.30
2007,10,23,12,21,18.30
2007,10,23,12,22,18.30
2007,10,23,12,23,18.30
2007,10,23,12,24,18.30
2007,10,23,12,25,18.30
2007,10,23,12,26,18.30
2007,10,23,12,27,18.30
2007,10,23,12,28,18.30
2007,10,23,12,29,18.40
2007,10,23,12,30,18.40
2007,10,23,12,31,18.40
2007,10,23,12,32,18.50
2007,10,23,12,33,18.50
2007,10,23,12,34,18.50
2007,10,23,12,35,18.60
2007,10,23,12,36,18.60
2007,10,23,12,37,18.60
2007,10,23,12,38,18.60
2007,10,23,12,39,18.60
2007,10,23,12,40,18.60
2007,10,23,12,41,18.50
2007,10,23,12,42,18.50
2007,10,23,12,43,18.50
2007,10,23,12,44,18.50
2007,10,23,12,45,18.40
2007,10,23,12,46,18.40
2007,10,23,12,47,18.30
2007,10,23,12,48,18.20
2007,10,23,12,49,18.20
2007,10,23,12,50,18.20
2007,10,23,12,51,18.20
2007,10,23,12,52,18.20
2007,10,23,12,53,18.20
2007,10,23,12,54,18.20
2007,10,23,12,55,18.20
2007,10,23,12,56,18.10
2007,10,23,12,57,18.10
2007,10,23,12,58,18.10
2007,10,23,12,59,18.10
2007,10,23,13,00,18.10
2007,10,23,13,01,18.10
2007,10,23,13,02,18.20
2007,10,23,13,03,18.20
2007,10,23,13,04,18.20
2007,10,23,13,05,18.20
2007,10,23,13,06,18.20
2007,10,23,13,07,18.20
2007,10,23,13,08,18.20
2007,10,23,13,09,18.20
2007,10,23,13,10,18.20
2007,10,23,13,11,18.20
2007,10,23,13,12,18.20
2007,10,23,13,13,18.10
2007,10,23,13,14,18.10
2007,10,23,13,15,18.10
2007,10,23,13,16,18.10
2007,10,23,13,17,18.00
2007,10,23,13,18,17.90
2007,10,23,13,19,17.90
2007,10,23,13,20,17.70
2007,10,23,13,21,17.70
2007,10,23,13,22,17.60
2007,10,23,13,23,17.60
2007,10,23,13,24,17.60
2007,10,23,13,25,17.60
2007,10,23,13,26,17.60
2007,10,23,13,27,17.60
2007,10,23,13,28,17.50
2007,10,23,13,29,17.50
2007,10,23,13,30,17.60
2007,10,23,13,31,17.60
2007,10,23,13,32,17.70
2007,10,23,13,33,17.70
2007,10,23,13,34,17.80
2007,10,23,13,35,17.90
2007,10,23,13,36,17.90
2007,10,23,13,37,17.90
2007,10,23,13,38,17.90
2007,10,23,13,39,18.00
2007,10,23,13,40,18.10
2007,10,23,13,41,18.10
2007,10,23,13,42,18.20
2007,10,23,13,43,18.20
2007,10,23,13,44,18.20
2007,10,23,13,45,18.30
2007,10,23,13,46,18.30
2007,10,23,13,47,18.40
2007,10,23,13,48,18.40
2007,10,23,13,49,18.40
2007,10,23,13,50,18.40
2007,10,23,13,51,18.40
2007,10,23,13,52,18.40
2007,10,23,13,53,18.30
2007,10,23,13,54,18.30
2007,10,23,13,55,18.40
2007,10,23,13,56,18.40
2007,10,23,13,57,18.40
2007,10,23,13,58,18.40
2007,10,23,13,59,18.50
2007,10,23,14,00,18.50
2007,10,23,14,01,18.60
2007,10,23,14,02,18.60
2007,10,23,14,03,18.70
2007,10,23,14,04,18.80
2007,10,23,14,05,18.90
2007,10,23,14,06,18.90
2007,10,23,14,07,19.00
2007,10,23,14,08,19.10
2007,10,23,14,09,19.20
2007,10,23,14,10,19.30
2007,10,23,14,11,19.40
2007,10,23,14,12,19.50
2007,10,23,14,13,19.60
2007,10,23,14,14,19.70
2007,10,23,14,15,19.80
2007,10,23,14,16,19.90
2007,10,23,14,17,19.90
2007,10,23,14,18,19.90
2007,10,23,14,19,19.90
2007,10,23,14,20,20.00
2007,10,23,14,21,20.00
2007,10,23,14,22,19.90
2007,10,23,14,23,19.90
2007,10,23,14,24,20.00
2007,10,23,14,25,20.10
2007,10,23,14,26,20.10
2007,10,23,14,27,20.10
2007,10,23,14,28,20.10
2007,10,23,14,29,20.10
2007,10,23,14,30,20.20
2007,10,23,14,31,20.20
2007,10,23,14,32,20.20
2007,10,23,14,33,20.20
2007,10,23,14,34,20.20
2007,10,23,14,35,20.20
2007,10,23,14,36,20.20
2007,10,23,14,37,20.20
2007,10,23,14,38,20.20
2007,10,23,14,39,20.20
2007,10,23,14,40,20.30
2007,10,23,14,41,20.40
2007,10,23,14,42,20.50
2007,10,23,14,43,20.50
2007,10,23,14,44,20.60
2007,10,23,14,45,20.60
2007,10,23,14,46,20.60
2007,10,23,14,47,20.60
2007,10,23,14,48,20.60
2007,10,23,14,49,20.60
2007,10,23,14,50,20.60
2007,10,23,14,51,20.60
2007,10,23,14,52,20.60
2007,10,23,14,53,20.60
2007,10,23,14,54,20.70
2007,10,23,14,55,20.70
2007,10,23,14,56,20.80
2007,10,23,14,57,20.80
2007,10,23,14,58,20.90
2007,10,23,14,59,20.90
2007,10,23,15,00,21.00
2007,10,23,15,01,21.00
2007,10,23,15,02,21.10
2007,10,23,15,03,21.10
2007,10,23,15,04,21.10
2007,10,23,15,05,21.10
2007,10,23,15,06,21.10
2007,10,23,15,07,21.10
2007,10,23,15,08,21.10
2007,10,23,15,09,21.10
2007,10,23,15,10,21.10
2007,10,23,15,11,21.10
2007,10,23,15,12,21.10
2007,10,23,15,13,21.20
2007,10,23,15,14,21.20
2007,10,23,15,15,21.20
2007,10,23,15,16,21.20
2007,10,23,15,17,21.20
2007,10,23,15,18,21.20
2007,10,23,15,19,21.20
2007,10,23,15,20,21.20
2007,10,23,15,21,21.30
2007,10,23,15,22,21.30
2007,10,23,15,23,21.30
2007,10,23,15,24,21.30
2007,10,23,15,25,21.20
2007,10,23,15,26,21.10
2007,10,23,15,27,21.10
2007,10,23,15,28,21.00
2007,10,23,15,29,20.90
2007,10,23,15,30,20.80
2007,10,23,15,31,20.80
2007,10,23,15,32,20.70
2007,10,23,15,33,20.50
2007,10,23,15,34,20.20
2007,10,23,15,35,19.90
2007,10,23,15,36,19.50
2007,10,23,15,37,19.20
2007,10,23,15,38,18.90
2007,10,23,15,39,18.60
2007,10,23,15,40,18.40
2007,10,23,15,41,18.20
2007,10,23,15,42,17.90
2007,10,23,15,43,17.60
2007,10,23,15,44,17.40
2007,10,23,15,45,17.10
2007,10,23,15,46,16.90
2007,10,23,15,47,16.80
2007,10,23,15,48,16.70
2007,10,23,15,49,16.70
2007,10,23,15,50,16.60
2007,10,23,15,51,16.50
2007,10,23,15,52,16.40
2007,10,23,15,53,16.30
2007,10,23,15,54,16.20
2007,10,23,15,55,16.20
2007,10,23,15,56,16.10
2007,10,23,15,57,16.10
2007,10,23,15,58,15.90
2007,10,23,15,59,15.80
2007,10,23,16,00,15.80
2007,10,23,16,01,15.80
2007,10,23,16,02,15.70
2007,10,23,16,03,15.70
2007,10,23,16,04,15.70
2007,10,23,16,05,15.70
2007,10,23,16,06,15.70
2007,10,23,16,07,15.70
2007,10,23,16,08,15.70
2007,10,23,16,09,15.70
2007,10,23,16,10,15.70
2007,10,23,16,11,15.70
2007,10,23,16,12,15.70
2007,10,23,16,13,15.80
2007,10,23,16,14,15.80
2007,10,23,16,15,15.90
2007,10,23,16,16,16.00
2007,10,23,16,17,16.10
2007,10,23,16,18,16.20
2007,10,23,16,19,16.30
2007,10,23,16,20,16.40
2007,10,23,16,21,16.50
2007,10,23,16,22,16.60
2007,10,23,16,23,16.80
2007,10,23,16,24,16.90
2007,10,23,16,25,17.00
2007,10,23,16,26,17.20
2007,10,23,16,27,17.30
2007,10,23,16,28,17.40
2007,10,23,16,29,17.60
2007,10,23,16,30,17.80
2007,10,23,16,31,18.00
2007,10,23,16,32,18.20
2007,10,23,16,33,18.30
2007,10,23,16,34,18.40
2007,10,23,16,35,18.50
2007,10,23,16,36,18.60
2007,10,23,16,37,18.70
2007,10,23,16,38,18.70
2007,10,23,16,39,18.80
2007,10,23,16,40,18.90
2007,10,23,16,41,18.90
2007,10,23,16,42,18.90
2007,10,23,16,43,18.90
2007,10,23,16,44,19.00
2007,10,23,16,45,19.10
2007,10,23,16,46,19.10
2007,10,23,16,47,19.10
2007,10,23,16,48,19.00
2007,10,23,16,49,18.90
2007,10,23,16,50,18.90
2007,10,23,16,51,18.90
2007,10,23,16,52,18.90
2007,10,23,16,53,18.90
2007,10,23,16,54,18.80
2007,10,23,16,55,18.80
2007,10,23,16,56,18.80
2007,10,23,16,57,18.70
2007,10,23,16,58,18.70
2007,10,23,16,59,18.60
2007,10,23,17,00,18.60
2007,10,23,17,01,18.60
2007,10,23,17,02,18.60
2007,10,23,17,03,18.50
2007,10,23,17,04,18.50
2007,10,23,17,05,18.40
2007,10,23,17,06,18.40
2007,10,23,17,07,18.30
2007,10,23,17,08,18.30
2007,10,23,17,09,18.20
2007,10,23,17,10,18.20
2007,10,23,17,11,18.10
2007,10,23,17,12,18.10
2007,10,23,17,13,18.00
2007,10,23,17,14,17.90
2007,10,23,17,15,17.90
2007,10,23,17,16,17.90
2007,10,23,17,17,17.80
2007,10,23,17,18,17.80
2007,10,23,17,19,17.70